MIDAS 4 DEB, 195

Orbit data source: Space-Track

MIDAS 4 DEB, 195 is space debris in LEO originally from a launch on Sat, 21 Oct 1961 UTC launched from the Air Force Western Test Range (AFWTR). Debris objects in space refer to the collection of defunct objects orbiting the Earth. Examples of debris include non-operational satellites, rocket bodies, and fragments generated from explosions, collisions, or faulty payload assembly.

Loading next visibility...
Identifier
195, 1961-028D
Orbit
LEO
Country
Flag of USUS
Related business
Manufacturer
Unknown
Mission
Spacecraft
Bus & Motor
Unknown
Mass
~10 kg wet, ~10 kg dry
Launch date (UTC)
1961-10-21 (64 years ago)
Launch vehicle
Unknown
Launch site
Air Force Western Test Range (AFWTR)
Object type
Payload
Rocket body
Debris
Shape & HBR
Unknown shape, 1.1 m
Radar Cross Section
Medium (>0.1 m² and <1 m²)

Expand to show TLE details & history
Last TLE update: 1 day ago

TLE from 1 day ago
0 MIDAS 4 DEB
1 00195U 61028D   25314.96101406 -.00000012  00000-0 -37319-2 0  9994
2 00195  95.8349 158.6909 0127066 286.7188  71.9752  8.65622264 24148
Epoch: 2025-11-10T23:03Z
TLE epoch observation values (Epoch: 2025-11-10T23:03:51.614Z)
Latitude
-0.00002°
Longitude
122.37143°
Altitude
3,605.668 km
Speed
6.331 km/s
True Right ascension
10h 34m 45s
True Declination
0° 00' 00"
Sunlit
Object was in daylight at epoch
Visualization orbit readout
Latitude
Unknown
Longitude
Unknown
Altitude
Unknown
Speed
Unknown
Apparent Right ascension
Unknown
Apparent Declination
Unknown
Sunlit
N/A
Visualization observer readout
Local Sidereal Time
02:34:11
Azimuth
Unknown
Elevation
Unknown
Doppler factor
Unknown
Orbital elements
Apogee altitude
3,766.608 km
Perigee altitude
3,512.033 km
Semi-major axis
10,017.457 km
Eccentricity
0.01271
Inclination
95.8349°
RAAN
158.6909°
Arg. of periapsis
286.7188°
True anomaly
73.36651°
Mean anomaly
71.9752°
Eccentric anomaly
72.67019°
Mean motion
2.16475 °/min
Orbital period
166.3 mins
BSTAR
-0.0037319
Loading maneuver chart data...
Computing Atmospheric mass density...
Loading historical data...
Loading historical data...
Loading historical data...
Loading historical data...
Loading historical data...
Loading historical data...
Loading historical data...

Documentation

Showing up to 5 results
|